Zurück zum Katalog

FENGYUN 1C DEB

AktivSSO
NORAD 30366·DEBRIS·🇨🇳 China

Gestartet May 10, 1999 von Taiyuan Satellite Launch Center

Loading…

Nächste Überflüge (nächste 24 Stunden)

TLE

AktuellSource: Space-Track

Epoche: Sep 14, 2026, 06:22 UTC

1 30366U 99025ACD 26257.26527937  .00000724  00000-0  26890-3 0  9997
2 30366  98.9278 188.5128 0062815 131.8230  29.1288 14.34176761 22729

Verfolge FENGYUN 1C DEB in Echtzeit mit AllMySat

Download on the App Store